Weather History for Astoria, OR

Change the Weather History Date:

Monday, February 25, 2013

  Actual Average Record
Temperature  
Mean Temperature 42 °F 45 °F  
Max Temperature 48 °F 52 °F 67 °F (1992)
Min Temperature 36 °F 37 °F 24 °F (1962)
Degree Days  
Heating Degree Days 23 20  
Month to date heating degree days 512 520  
Since 1 July heating degree days 3322 3285  
Cooling Degree Days 0 0  
Month to date cooling degree days 0 0  
Year to date cooling degree days 0 0  
Moisture  
Dew Point 37 °F    
Average Humidity 76    
Maximum Humidity 92    
Minimum Humidity 60    
Precipitation  
Precipitation 0.29 in 0.25 in 2.02 in (1948)
Month to date precipitation 4.52 6.43  
Year to date precipitation 13.62 16.63  
Snow  
Snow 0.00 in - - ()
Month to date snowfall 0.0  
Snow Depth 0.00 in    
Sea Level Pressure  
Sea Level Pressure 30.18 in    
Wind  
Wind Speed 12 mph (West)    
Max Wind Speed 25 mph    
Max Gust Speed 35 mph    
Visibility 10 miles    
Events Rain    
T = Trace of Precipitation, MM = Missing Value Source: NWS Daily Summary

Daily Weather History Graph

Daily Weather History Graph

Search for Another Location

Airport:

Trip Planner

Search our weather history database for the weather conditions in past years. The results will help you decide how hot, cold, wet, or windy it might be!

Date:

Astronomy

Feb. 25, 2013 Rise Set
Actual Time 7:01 AM PST 5:56 PM PST
Civil Twilight 6:30 AM PST 6:26 PM PST
Nautical Twilight 5:56 AM PST 7:01 PM PST
Astronomical Twilight 5:21 AM PST 7:36 PM PST
Moon 6:19 PM PST (2/25) 6:32 AM PST (2/25)
Length of Visible Light 11h 56m
Length of Day
10h 55m
Full, 100% of the Moon is Illuminated
Feb 25
Full
Feb 25
Full
Mar 4
Last Quarter
Mar 11
New
Mar 19
First Quarter

Hourly Weather History & Observations

Time (PST) Temp. Windchill Dew Point Humidity Pressure Visibility Wind Dir Wind Speed Gust Speed Precip Events Conditions
12:09 AM 46.4 °F 39.0 °F 44.6 °F 93% 29.95 in 4.0 mi South 19.6 mph 33.4 mph 0.05 in Rain Rain
12:46 AM 44.6 °F 36.1 °F 42.8 °F 93% 29.98 in 7.0 mi West 21.9 mph 31.1 mph 0.15 in Rain Light Rain
12:55 AM 45.0 °F 37.9 °F 42.1 °F 90% 29.99 in 10.0 mi West 16.1 mph 28.8 mph 0.15 in Rain Light Rain
1:25 AM 44.6 °F 37.4 °F 39.2 °F 81% 30.00 in 10.0 mi West 16.1 mph - 0.00 in   Overcast
1:55 AM 45.0 °F 37.9 °F 39.0 °F 80% 30.01 in 10.0 mi West 16.1 mph 21.9 mph 0.00 in   Overcast
2:28 AM 42.8 °F 34.8 °F 37.4 °F 81% 30.03 in 6.0 mi West 17.3 mph 28.8 mph 0.02 in Rain Rain
2:55 AM 44.1 °F 37.7 °F 37.9 °F 79% 30.04 in 10.0 mi West 12.7 mph 21.9 mph 0.03 in   Overcast
3:02 AM 42.8 °F 36.6 °F 37.4 °F 81% 30.04 in 10.0 mi West 11.5 mph 21.9 mph N/A   Mostly Cloudy
3:38 AM 42.8 °F 37.5 °F 39.2 °F 87% 30.05 in 10.0 mi West 9.2 mph 18.4 mph 0.01 in Rain Light Rain
3:55 AM 42.1 °F 34.5 °F 37.0 °F 82% 30.06 in 7.0 mi West 15.0 mph 27.6 mph 0.01 in Rain Light Rain
4:55 AM 43.0 °F 34.5 °F 37.9 °F 82% 30.09 in 10.0 mi West 19.6 mph 26.5 mph 0.01 in   Overcast
5:53 AM 44.6 °F 37.8 °F 37.4 °F 76% 30.11 in 10.0 mi West 15.0 mph 21.9 mph N/A   Overcast
5:55 AM 44.1 °F 36.5 °F 37.9 °F 79% 30.11 in 10.0 mi West 17.3 mph 20.7 mph N/A   Overcast
6:16 AM 44.6 °F 37.4 °F 37.4 °F 76% 30.12 in 10.0 mi West 16.1 mph 21.9 mph N/A   Mostly Cloudy
6:55 AM 44.1 °F 36.5 °F 37.0 °F 76% 30.14 in 10.0 mi West 17.3 mph 23.0 mph N/A   Overcast
7:55 AM 45.0 °F 38.2 °F 36.0 °F 71% 30.15 in 10.0 mi West 15.0 mph 26.5 mph 0.00 in   Scattered Clouds
8:25 AM 42.8 °F 34.3 °F 37.4 °F 81% 30.18 in 9.0 mi WNW 19.6 mph 29.9 mph 0.00 in Rain Light Rain
8:55 AM 45.0 °F 38.2 °F 37.0 °F 74% 30.18 in 10.0 mi West 15.0 mph - 0.00 in Rain Light Rain
9:55 AM 46.0 °F 39.6 °F 36.0 °F 68% 30.21 in 10.0 mi West 15.0 mph 24.2 mph 0.00 in   Overcast
10:55 AM 46.0 °F 39.3 °F 37.0 °F 71% 30.22 in 10.0 mi West 16.1 mph 23.0 mph N/A   Overcast
11:55 AM 46.9 °F - 33.1 °F 59% 30.25 in 10.0 mi WNW 13.8 mph - 0.00 in   Overcast
12:55 PM 46.9 °F - 35.1 °F 63% 30.25 in 10.0 mi West 10.4 mph - 0.01 in   Overcast
1:55 PM 44.1 °F 36.2 °F 36.0 °F 73% 30.26 in 10.0 mi NW 18.4 mph 27.6 mph 0.01 in   Overcast
2:16 PM 42.8 °F 36.2 °F 37.4 °F 81% 30.26 in 10.0 mi West 12.7 mph - 0.03 in Rain Light Rain
2:55 PM 48.0 °F - 39.9 °F 74% 30.27 in 10.0 mi West 11.5 mph - 0.03 in   Partly Cloudy
3:55 PM 45.0 °F 38.9 °F 37.9 °F 76% 30.28 in 10.0 mi WNW 12.7 mph 19.6 mph 0.04 in   Partly Cloudy
4:55 PM 45.0 °F 39.7 °F 37.9 °F 76% 30.29 in 10.0 mi West 10.4 mph 20.7 mph N/A   Scattered Clouds
5:55 PM 44.1 °F 38.6 °F 35.1 °F 71% 30.31 in 10.0 mi West 10.4 mph - N/A   Partly Cloudy
6:55 PM 42.1 °F 38.4 °F 36.0 °F 79% 30.32 in 10.0 mi West 5.8 mph - 0.00 in   Partly Cloudy
7:25 PM 42.8 °F 38.6 °F 35.6 °F 76% 30.33 in 10.0 mi WNW 6.9 mph - N/A   Mostly Cloudy
7:55 PM 39.9 °F 36.7 °F 35.1 °F 83% 30.33 in 10.0 mi WSW 4.6 mph - N/A   Scattered Clouds
8:55 PM 39.0 °F 35.7 °F 34.0 °F 82% 30.34 in 10.0 mi WSW 4.6 mph - N/A   Clear
9:55 PM 39.9 °F - 35.1 °F 83% 30.34 in 10.0 mi Calm Calm - N/A   Clear
10:55 PM 41.0 °F 37.1 °F 35.1 °F 79% 30.35 in 10.0 mi West 5.8 mph - N/A   Mostly Cloudy
11:55 PM 39.0 °F 36.8 °F 36.0 °F 89% 30.35 in 10.0 mi South 3.5 mph - 0.01 in   Mostly Cloudy